Location: Amsterdam
(30.7274°N, 84.4357°W)
Time: 19:04:04
(UTC+00:00)

Tiros 1 - Pass Details

Date: 17 February 2026
Orbit: 618 x 649 km, 48.4° (Epoch: 10 March)

Event Time Altitude Azimuth Distance (km) Brightness Sun altitude
Rises 19:38:25 0° 321° (NW) 2,886 10.4 40.4°
Reaches altitude 10° 19:41:07 10° 336° (NNW) 1,978 9.5 40.0°
Maximum altitude 19:44:46 23° 29° (NNE) 1,305 8.5 39.6°
Drops below altitude 10° 19:48:25 10° 83° (E) 1,975 9.4 39.1°
Sets 19:51:07 0° 98° (E) 2,881 10.2 38.7°
